sat.trackr.live / text

‹ back to catalog

NILESAT 201

NORAD 36830 · 2010-037A

PAYLOAD ACTIVE UNKNOWN

§ Identity

Operator
Country
EGYP
Launch date
2010-08-04
Launch site
FRGUI
Launch vehicle
Mass (kg)
RCS (m²)
59.76

Purposes: comms

External: N2YO · Heavens-Above · Gunter

§ Orbital elements

Epoch: 2026-05-25T03:42:39.949056Z

Period
1,436.11 min
Inclination
0.0025°
Eccentricity
0.0003761
Mean motion
1.00270824 rev/d
Perigee alt
35,771.0 km
Apogee alt
35,802.7 km
Semi-major
42,165.0 km
B*
0.0000e+0
RAAN
150.9949°
Arg perigee
298.3549°
Mean anomaly
202.0712°
Rev number
5,814

§ Raw data

NILESAT 2011 36830U 10037A   26145.15462904 -.00000060  00000+0  00000+0 0  99952 36830   0.0025 150.9949 0003761 298.3549 202.0712  1.00270824 58149

JSON: /api/v1/satellites/36830 · /tle

For live sub-satellite position, see the globe view (requires WebGL).

§ Visibility from observer

Set your observer location to see the next 7 days of passes ≥ 10°. The values pass through the URL so the page stays shareable.

No JS? Fill the form by hand. The geolocation button needs JavaScript.